User: anonymous   Login
Location: Unspecified
(0.0000°N, 0.0000°E)
Time: 09:18:50
(UTC+00:00)
Language:

Nadezhda 4 - Orbit

View from above orbital plane
View from above orbital plane
View from above satellite
View from above satellite

Ground track
Ground track

The orbit data is extracted from the following two-line orbital elements,

1 23179U 94041A   17086.85641495 +.00000033 +00000-0 +17299-4 0  9992
2 23179 082.9505 007.7073 0035797 150.7088 270.3211 13.76530519140503
Epoch (UTC): 27 March 2017 20:33:14
Eccentricity: 0.0035797
inclination: 82.9505°
perigee height: 950 km
apogee height: 1002 km
right ascension of ascending node: 7.7073°
argument of perigee: 150.7088°
revolutions per day: 13.76530519
mean anomaly at epoch: 270.3211°
orbit number at epoch: 14050

The dashed part of the orbit path shows where the satellite is in the earth's shadow,  

DLR